EW2580 Weather Reports


Display with metric or nautical units.
time (UTC)temp
F
wind
direction
speed
MPH
gust
MPH
rain 1hr
in
rain 24hr
in
rain mn
in
humidity
%
barometer
mb
20260504044549 34 346 0.0 2.0 0.00 0.00 0.00 87 1013.1
20260504043047 34 346 0.0 2.0 0.00 0.00 0.00 87 1013.1
20260504041545 34 346 0.0 2.0 0.00 0.00 0.00 86 1013.1
20260504040041 35 346 0.0 2.0 0.00 0.00 0.00 85 1013.1
20260504034552 36 346 0.0 2.0 0.00 0.00 0.00 85 1013.2
20260504033050 36 346 0.0 1.0 0.00 0.00 0.00 84 1013.1
20260504031549 37 346 0.0 2.0 0.00 0.00 0.00 82 1013.2
20260504030049 38 261 0.0 2.0 0.00 0.00 0.00 81 1013.2
20260504024543 39 261 0.0 1.0 0.00 0.00 0.00 78 1013.2
20260504023038 40 261 0.0 2.0 0.00 0.00 0.00 77 1013.2
20260504021538 42 261 0.0 1.0 0.00 0.00 0.00 74 1013.2
20260504020038 43 261 0.0 1.0 0.00 0.00 0.00 70 1013.1
20260504014539 45 261 0.0 2.0 0.00 0.00 0.00 67 1013.0
20260504013039 47 261 0.0 1.0 0.00 0.00 0.00 62 1012.9
20260504011535 49 261 0.0 3.0 0.00 0.00 0.00 60 1012.8
20260504010035 50 211 0.0 3.0 0.00 0.00 0.00 57 1012.8
20260504004534 51 274 0.0 3.0 0.00 0.00 0.00 51 1012.7
20260504003041 52 26 0.0 5.0 0.00 0.00 0.00 47 1012.7
20260504001533 53 215 0.0 3.0 0.00 0.00 0.00 45 1012.6
20260504000032 53 140 0.0 4.0 0.00 0.00 0.00 48 1012.6
20260503234533 54 167 1.0 5.0 0.00 0.00 0.00 45 1012.5
20260503233037 54 234 1.0 3.0 0.00 0.00 0.00 41 1012.5
20260503231531 54 20 1.0 9.0 0.00 0.00 0.00 40 1012.6
20260503230031 54 42 3.0 16.0 0.00 0.00 0.00 40 1012.5
20260503224530 54 240 1.0 8.0 0.00 0.00 0.00 41 1012.4
20260503223030 55 202 6.0 12.0 0.00 0.00 0.00 40 1012.5
20260503221527 55 84 5.0 16.0 0.00 0.00 0.00 40 1012.6
20260503220028 55 229 4.0 14.0 0.00 0.00 0.00 39 1012.4
20260503214527 55 249 3.0 15.0 0.00 0.00 0.00 39 1012.5
20260503213026 55 105 2.0 10.0 0.00 0.00 0.00 40 1012.5
20260503211527 56 342 3.0 14.0 0.00 0.00 0.00 37 1012.6
20260503210024 55 109 2.0 10.0 0.00 0.00 0.00 38 1012.4
20260503204522 55 303 5.0 15.0 0.00 0.00 0.00 37 1012.6
20260503203029 54 56 3.0 12.0 0.00 0.00 0.00 40 1012.8
20260503201520 54 309 2.0 12.0 0.00 0.00 0.00 40 1012.9
20260503200018 54 235 4.0 11.0 0.00 0.00 0.00 40 1013.1
20260503194517 55 103 2.0 14.0 0.00 0.00 0.00 40 1013.3
20260503193014 54 188 5.0 16.0 0.00 0.00 0.00 42 1013.5
20260503191513 55 304 4.0 15.0 0.00 0.00 0.00 38 1013.6
20260503190013 55 337 10.0 22.0 0.00 0.00 0.00 38 1013.7
20260503184516 55 266 4.0 13.0 0.00 0.00 0.00 39 1013.9
20260503183007 54 323 4.0 14.0 0.00 0.00 0.00 40 1014.2
20260503181505 53 25 3.0 18.0 0.00 0.00 0.00 44 1014.4
20260503180003 53 341 4.0 17.0 0.00 0.00 0.00 40 1014.4
20260503174601 53 355 4.0 15.0 0.00 0.00 0.00 44 1014.8
20260503173059 52 313 3.0 14.0 0.00 0.00 0.00 41 1014.7
20260503171610 51 306 7.0 13.0 0.00 0.00 0.00 43 1015.0
20260503081539 29 320 0.0 0.0 0.00 0.00 0.00 86 1016.3
20260503071542 31 320 0.0 1.0 0.00 0.00 0.00 84 1016.0
20260503054521 35 13 0.0 1.0 0.00 0.00 0.00 80 1016.2
20260503053011 35 13 0.0 0.0 0.00 0.00 0.00 78 1016.3
20260503051507 35 13 0.0 1.0 0.00 0.00 0.00 78 1016.4